Dublin, Ireland

2:22 PM IST on July 23, 2017 (GMT +0100)
Dublin International

Weather History for EIDW - May, 2013

Change the Weather History Date:

Tuesday, May 21, 2013

  Actual Average Record
Temperature  
Mean Temperature 54 °F -  
Max Temperature 63 °F 62 °F 64 °F (2001)
Min Temperature 46 °F 48 °F 35 °F (2004)
Degree Days  
Heating Degree Days 10    
Growing Degree Days 4 (Base 50)    
Moisture  
Dew Point 45 °F    
Average Humidity 74    
Maximum Humidity 93    
Minimum Humidity 51    
Precipitation  
Precipitation 0.00 in 0.07 in - ()
Sea Level Pressure  
Sea Level Pressure 30.14 in    
Wind  
Wind Speed 14 mph ()    
Max Wind Speed 22 mph    
Max Gust Speed 31 mph    
Visibility 6.6 miles    
Events      
Averages and records for this station are not official NWS values.
T = Trace of Precipitation, MM = Missing Value Source: Averaged Metar Reports

Daily Weather History Graph

Daily Weather History Graph

Search for Another Location

Airport or City:

Trip Planner

Search our weather history database for the weather conditions in past years. The results will help you decide how hot, cold, wet, or windy it might be!

Date:

Astronomy

May. 21, 2013 Rise Set
Actual Time 5:15 AM IST 9:28 PM IST
Civil Twilight 4:29 AM IST 10:15 PM IST
Nautical Twilight 3:20 AM IST 11:24 PM IST
Astronomical Twilight 1:54 AM IST 12:49 AM IST
Moon 4:54 PM IST (5/21) 3:13 AM IST (5/21)
Length of Visible Light 17h 45m
Length of Day
16h 12m
Waxing Gibbous, 82% of the Moon is Illuminated
May 21
Waxing Gibbous
May 25
Full
May 31
Last Quarter
Jun 8
New
Jun 16
First Quarter

Hourly Weather History & Observations

Time (IST) Temp. Windchill Dew Point Humidity Pressure Visibility Wind Dir Wind Speed Gust Speed Precip Events Conditions
12:00 AM 48.2 °F - 44.6 °F 87% 30.12 in 6.2 mi NW 21.9 mph - N/A   Mostly Cloudy
12:30 AM 48.2 °F - 44.6 °F 87% 30.12 in 6.2 mi NW 19.6 mph - N/A   Mostly Cloudy
1:00 AM 49 °F - 45 °F 79% 30.14 in 16 mi NW 13.4 mph - -   Mostly Cloudy
1:00 AM 48.2 °F - 44.6 °F 87% 30.12 in 6.2 mi NW 15.0 mph 31.1 mph N/A   Mostly Cloudy
1:30 AM 48.2 °F - 44.6 °F 87% 30.12 in 6.2 mi NW 15.0 mph - N/A   Mostly Cloudy
2:00 AM 48.2 °F - 44.6 °F 87% 30.12 in 6.2 mi NW 16.1 mph - N/A   Mostly Cloudy
2:30 AM 48.2 °F - 44.6 °F 87% 30.12 in 6.2 mi WNW 13.8 mph - N/A   Mostly Cloudy
3:00 AM 48.2 °F - 42.8 °F 82% 30.12 in 6.2 mi NW 11.5 mph - N/A   Mostly Cloudy
3:30 AM 48.2 °F - 44.6 °F 87% 30.12 in 6.2 mi WNW 12.7 mph - N/A   Mostly Cloudy
4:00 AM 48.2 °F - 42.8 °F 82% 30.12 in 6.2 mi WNW 15.0 mph - N/A   Mostly Cloudy
4:30 AM 46.4 °F 41.9 °F 42.8 °F 87% 30.12 in 6.2 mi WNW 9.2 mph - N/A   Mostly Cloudy
5:00 AM 46.4 °F 40.4 °F 42.8 °F 87% 30.12 in 6.2 mi WNW 13.8 mph - N/A   Mostly Cloudy
5:30 AM 46.4 °F 41.9 °F 42.8 °F 87% 30.12 in 6.2 mi NW 9.2 mph - N/A   Mostly Cloudy
6:00 AM 46.4 °F 40.4 °F 42.8 °F 87% 30.12 in 6.2 mi NW 13.8 mph - N/A   Mostly Cloudy
6:30 AM 46.4 °F 40.4 °F 42.8 °F 87% 30.15 in 6.2 mi NW 13.8 mph - N/A   Mostly Cloudy
7:00 AM 47 °F - 43 °F 82% 30.17 in 16 mi NW 15.7 mph - -   Mostly Cloudy
7:00 AM 46.4 °F 40.1 °F 42.8 °F 87% 30.15 in 6.2 mi NW 15.0 mph - N/A   Mostly Cloudy
7:30 AM 46.4 °F 40.7 °F 44.6 °F 93% 30.15 in 6.2 mi NW 12.7 mph - N/A   Mostly Cloudy
8:00 AM 48.2 °F - 42.8 °F 82% 30.15 in 6.2 mi NW 16.1 mph - N/A   Mostly Cloudy
8:30 AM 48.2 °F - 44.6 °F 87% 30.15 in 6.2 mi NW 13.8 mph - N/A   Mostly Cloudy
9:00 AM 48.2 °F - 44.6 °F 87% 30.15 in 6.2 mi NW 15.0 mph - N/A   Mostly Cloudy
9:30 AM 48.2 °F - 42.8 °F 82% 30.15 in 6.2 mi NW 15.0 mph - N/A   Mostly Cloudy
10:00 AM 50.0 °F - 42.8 °F 76% 30.15 in 6.2 mi NW 13.8 mph - N/A   Mostly Cloudy
10:30 AM 51.8 °F - 44.6 °F 76% 30.15 in 6.2 mi NW 13.8 mph - N/A   Mostly Cloudy
11:00 AM 53.6 °F - 44.6 °F 72% 30.15 in 6.2 mi NW 15.0 mph - N/A   Mostly Cloudy
11:30 AM 55.4 °F - 44.6 °F 67% 30.15 in 6.2 mi WNW 15.0 mph - N/A   Mostly Cloudy
12:00 PM 55.4 °F - 44.6 °F 67% 30.15 in 6.2 mi WNW 15.0 mph - N/A   Scattered Clouds
12:30 PM 57.2 °F - 44.6 °F 63% 30.15 in 6.2 mi NW 17.3 mph - N/A   Scattered Clouds
1:00 PM 57 °F - 44 °F 51% 30.17 in 25 mi WNW 15.7 mph - -   Partly Cloudy
1:00 PM 59.0 °F - 44.6 °F 59% 30.15 in 6.2 mi WNW 16.1 mph - N/A   Scattered Clouds
1:30 PM 59.0 °F - 44.6 °F 59% 30.15 in 6.2 mi WNW 13.8 mph - N/A   Scattered Clouds
2:00 PM 59.0 °F - 44.6 °F 59% 30.15 in 6.2 mi NW 15.0 mph - N/A   Scattered Clouds
2:30 PM 60.8 °F - 46.4 °F 59% 30.15 in 6.2 mi WNW 15.0 mph - N/A   Scattered Clouds
3:00 PM 60.8 °F - 46.4 °F 59% 30.15 in 6.2 mi WNW 13.8 mph - N/A   Scattered Clouds
3:30 PM 60.8 °F - 48.2 °F 63% 30.12 in 6.2 mi NW 12.7 mph - N/A   Scattered Clouds
4:00 PM 62.6 °F - 46.4 °F 55% 30.12 in 6.2 mi NW 12.7 mph - N/A   Mostly Cloudy
4:30 PM 60.8 °F - 46.4 °F 59% 30.12 in 6.2 mi WNW 11.5 mph - N/A   Mostly Cloudy
5:00 PM 62.6 °F - 48.2 °F 59% 30.12 in 6.2 mi NW 13.8 mph - N/A   Mostly Cloudy
5:30 PM 62.6 °F - 46.4 °F 55% 30.12 in 6.2 mi WNW 13.8 mph - N/A   Mostly Cloudy
6:00 PM 60.8 °F - 48.2 °F 63% 30.12 in 6.2 mi WNW 12.7 mph - N/A   Mostly Cloudy
6:30 PM 60.8 °F - 46.4 °F 59% 30.12 in 6.2 mi WNW 12.7 mph - N/A   Mostly Cloudy
7:00 PM 59 °F - 46 °F 52% 30.14 in 31 mi WNW 13.4 mph - -   Mostly Cloudy
7:00 PM 59.0 °F - 46.4 °F 63% 30.12 in 6.2 mi WNW 13.8 mph - N/A   Mostly Cloudy
7:30 PM 59.0 °F - 48.2 °F 67% 30.12 in 6.2 mi NW 12.7 mph - N/A   Mostly Cloudy
8:00 PM 57.2 °F - 46.4 °F 67% 30.15 in 6.2 mi WNW 11.5 mph - N/A   Mostly Cloudy
8:30 PM 55.4 °F - 48.2 °F 77% 30.15 in 6.2 mi WNW 15.0 mph - N/A   Mostly Cloudy
9:00 PM 53.6 °F - 46.4 °F 77% 30.15 in 6.2 mi WNW 12.7 mph - N/A   Mostly Cloudy
9:30 PM 53.6 °F - 48.2 °F 82% 30.18 in 6.2 mi WNW 9.2 mph - N/A   Mostly Cloudy
10:00 PM 53.6 °F - 46.4 °F 77% 30.18 in 6.2 mi NW 6.9 mph - N/A   Mostly Cloudy
10:30 PM 53.6 °F - 46.4 °F 77% 30.18 in 6.2 mi NW 11.5 mph - N/A   Mostly Cloudy
11:00 PM 53.6 °F - 46.4 °F 77% 30.18 in 6.2 mi NW 10.4 mph - N/A   Mostly Cloudy
11:30 PM 51.8 °F - 46.4 °F 82% 30.18 in 6.2 mi NNW 9.2 mph - N/A   Mostly Cloudy